Brookings, OR

3:21 AM PST on December 15, 2017 (GMT -0800)
Brookings State

Weather History for KBOK - October, 2012

Change the Weather History Date:

Wednesday, October 31, 2012

  Actual Average Record
Temperature  
Mean Temperature 56 °F -  
Max Temperature 59 °F 63 °F 82 °F (1966)
Min Temperature 52 °F 47 °F 36 °F (1935)
Degree Days  
Heating Degree Days 10    
Growing Degree Days 6 (Base 50)    
Moisture  
Dew Point 55 °F    
Average Humidity 99    
Maximum Humidity 100    
Minimum Humidity 83    
Precipitation  
Precipitation 0.96 in - - ()
Sea Level Pressure  
Sea Level Pressure 29.82 in    
Wind  
Wind Speed 12 mph (SSE)    
Max Wind Speed 18 mph    
Max Gust Speed 26 mph    
Visibility 3 miles    
Events Fog , Rain    
Averages and records for this station are not official NWS values.
T = Trace of Precipitation, MM = Missing Value Source: NWS Daily Summary

Daily Weather History Graph

Daily Weather History Graph

Search for Another Location

Airport or City:

Trip Planner

Search our weather history database for the weather conditions in past years. The results will help you decide how hot, cold, wet, or windy it might be!

Date:

Astronomy

Oct. 31, 2012 Rise Set
Actual Time 7:49 AM PDT 6:11 PM PDT
Civil Twilight 7:20 AM PDT 6:40 PM PDT
Nautical Twilight 6:47 AM PDT 7:13 PM PDT
Astronomical Twilight 6:14 AM PDT 7:45 PM PDT
Moon 7:24 PM PDT (10/31) 9:37 AM PDT (10/31)
Length of Visible Light 11h 20m
Length of Day
10h 22m
Waning Gibbous, 97% of the Moon is Illuminated
Oct 31
Waning Gibbous
Nov 6
Last Quarter
Nov 13
New
Nov 20
First Quarter
Nov 28
Full

Hourly Weather History & Observations

Time (PDT) Temp. Dew Point Humidity Pressure Visibility Wind Dir Wind Speed Gust Speed Precip Events Conditions
12:18 AM 57.2 °F 57.2 °F 100% 29.85 in 8.0 mi SSE 12.7 mph - N/A   Mostly Cloudy
12:37 AM 57.2 °F 57.2 °F 100% 29.86 in 9.0 mi SSE 11.5 mph - N/A   Overcast
1:56 AM 56.8 °F 56.8 °F 100% 29.83 in 10.0 mi SSE 15.0 mph - N/A   Overcast
2:56 AM 57.9 °F 54.9 °F 90% 29.80 in 10.0 mi SE 11.5 mph - N/A   Mostly Cloudy
3:56 AM 57.9 °F 55.9 °F 93% 29.77 in 10.0 mi SE 12.7 mph - N/A   Overcast
4:56 AM 59.0 °F 55.9 °F 90% 29.75 in 10.0 mi SSE 16.1 mph - N/A   Overcast
5:17 AM 57.2 °F 57.2 °F 100% 29.74 in 3.0 mi SSE 8.1 mph - 0.02 in Rain Light Rain
5:45 AM 55.4 °F 55.4 °F 100% 29.77 in 1.8 mi South 11.5 mph - 0.06 in Rain Heavy Rain
5:56 AM 54.9 °F 54.9 °F 100% 29.78 in 3.0 mi SSE 13.8 mph - 0.07 in Rain Light Rain
6:56 AM 55.9 °F 55.9 °F 100% 29.76 in 8.0 mi SSE 9.2 mph - 0.01 in Rain Light Rain
7:27 AM 55.4 °F 55.4 °F 100% 29.77 in 4.0 mi South 12.7 mph - 0.00 in Rain Light Rain
7:36 AM 55.4 °F 55.4 °F 100% 29.77 in 2.5 mi SSE 12.7 mph - 0.01 in Rain Light Rain
7:43 AM 55.4 °F 55.4 °F 100% 29.77 in 3.0 mi South 15.0 mph - 0.01 in Rain Light Rain
7:56 AM 54.9 °F 54.9 °F 100% 29.79 in 3.0 mi South 15.0 mph - 0.03 in Rain Light Rain
8:01 AM 55.4 °F 55.4 °F 100% 29.78 in 2.5 mi South 15.0 mph - 0.00 in Rain Light Rain
8:22 AM 53.6 °F 53.6 °F 100% 29.79 in 3.0 mi South 13.8 mph - 0.05 in Rain Light Rain
8:30 AM 53.6 °F - N/A% 29.80 in 2.5 mi South 10.4 mph - 0.07 in Rain Rain
8:37 AM 53.6 °F - N/A% 29.80 in 2.5 mi South 9.2 mph - 0.08 in Rain Rain
8:45 AM 53.6 °F - N/A% 29.81 in 2.0 mi South 9.2 mph - 0.10 in Rain Rain
8:56 AM 54.0 °F - N/A% 29.82 in 1.5 mi Variable 6.9 mph - 0.15 in Rain Rain
9:04 AM 53.6 °F - N/A% 29.82 in 1.0 mi Variable 6.9 mph - 0.04 in Rain Heavy Rain
9:08 AM 53.6 °F - N/A% 29.82 in 0.2 mi SW 8.1 mph - 0.06 in Rain Heavy Rain
9:19 AM 53.6 °F - N/A% 29.82 in 0.8 mi South 11.5 mph - 0.09 in Rain Rain
9:23 AM 53.6 °F - N/A% 29.82 in 1.2 mi South 10.4 mph - 0.10 in Rain Rain
9:35 AM 53.6 °F - N/A% 29.82 in 1.5 mi SSW 10.4 mph - 0.11 in Rain Light Rain
9:48 AM 53.6 °F - N/A% 29.82 in 2.5 mi South 10.4 mph - 0.12 in Rain Light Rain
9:56 AM 54.0 °F - N/A% 29.83 in 1.8 mi South 13.8 mph - 0.14 in Rain Light Rain
10:08 AM 53.6 °F - N/A% 29.83 in 1.0 mi SSW 11.5 mph - 0.01 in Rain Rain
10:19 AM 53.6 °F - N/A% 29.83 in 0.8 mi South 8.1 mph - 0.03 in Rain Light Rain
10:32 AM 53.6 °F - N/A% 29.83 in 0.5 mi South 8.1 mph - 0.03 in Rain Light Rain
10:40 AM 53.6 °F - N/A% 29.84 in 1.0 mi South 11.5 mph - 0.03 in Rain Light Rain
10:43 AM 53.6 °F - N/A% 29.83 in 1.5 mi SSE 13.8 mph - 0.03 in Rain Light Rain
10:56 AM 54.0 °F - N/A% 29.85 in 1.5 mi South 16.1 mph 25.3 mph 0.05 in Rain Light Rain
11:19 AM 53.6 °F - N/A% 29.83 in 1.0 mi SSE 13.8 mph - 0.02 in Rain Light Rain
11:37 AM 53.6 °F - N/A% 29.82 in 1.5 mi SE 12.7 mph 26.5 mph 0.03 in Rain Light Rain
11:38 AM 53.6 °F - N/A% 29.83 in 3.0 mi SE 12.7 mph - 0.03 in Rain Light Rain
11:47 AM 53.6 °F - N/A% 29.82 in 4.0 mi SE 13.8 mph - 0.04 in Rain Light Rain
11:56 AM 57.9 °F 52.9 °F 83% 29.82 in 3.0 mi SE 12.7 mph - 0.04 in Rain Light Rain
12:04 PM 55.4 °F 55.4 °F 100% 29.82 in 5.0 mi SSE 13.8 mph - 0.01 in Rain Light Rain
12:24 PM 55.4 °F 55.4 °F 100% 29.81 in 6.0 mi SSE 15.0 mph - 0.01 in Rain Light Rain
12:43 PM 55.4 °F 55.4 °F 100% 29.82 in 6.0 mi South 11.5 mph - 0.01 in Rain Light Rain
12:56 PM 54.9 °F 54.9 °F 100% 29.83 in 2.0 mi South 8.1 mph - 0.01 in Rain Light Rain
1:08 PM 55.4 °F 55.4 °F 100% 29.82 in 5.0 mi South 8.1 mph - 0.00 in   Overcast
1:25 PM 53.6 °F - N/A% 29.81 in 3.0 mi South 8.1 mph - 0.00 in   Overcast
1:44 PM 53.6 °F - N/A% 29.81 in 4.0 mi Variable 3.5 mph - 0.00 in Rain Light Rain
1:56 PM 54.0 °F - N/A% 29.81 in 5.0 mi SE 5.8 mph - 0.00 in   Haze
2:56 PM 55.9 °F 55.9 °F 100% 29.82 in 1.8 mi SSW 8.1 mph - 0.03 in Rain Light Rain
3:00 PM 55.4 °F 55.4 °F 100% 29.82 in 1.0 mi South 12.7 mph - 0.03 in Rain Heavy Rain
3:07 PM 55.4 °F 55.4 °F 100% 29.81 in 0.8 mi South 10.4 mph - 0.07 in Rain Rain
3:17 PM 53.6 °F 53.6 °F 100% 29.81 in 1.2 mi South 12.7 mph - 0.11 in Rain Rain
3:23 PM 53.6 °F 53.6 °F 100% 29.81 in 2.0 mi SSE 16.1 mph - 0.11 in Rain Light Rain
3:34 PM 53.6 °F 53.6 °F 100% 29.80 in 3.0 mi SSE 9.2 mph - 0.12 in Rain Light Rain
3:56 PM 54.9 °F 54.9 °F 100% 29.81 in 6.0 mi SSE 10.4 mph - 0.12 in   Overcast
4:56 PM 54.9 °F 54.9 °F 100% 29.81 in 7.0 mi South 12.7 mph - N/A   Overcast
5:08 PM 53.6 °F 53.6 °F 100% 29.81 in 6.0 mi South 11.5 mph - 0.00 in Rain Light Rain
5:18 PM 53.6 °F 53.6 °F 100% 29.81 in 2.0 mi SSE 13.8 mph - 0.00 in Rain Light Rain
5:30 PM 53.6 °F - N/A% 29.81 in 1.8 mi South 16.1 mph - 0.00 in Rain Light Rain
5:34 PM 53.6 °F - N/A% 29.81 in 1.0 mi South 17.3 mph - 0.01 in Rain Light Rain
5:44 PM 53.6 °F - N/A% 29.80 in 0.5 mi SSE 11.5 mph - 0.03 in Rain Rain
5:56 PM 52.9 °F - N/A% 29.81 in 0.2 mi South 18.4 mph - 0.08 in Rain Light Rain
6:09 PM 53.6 °F - N/A% 29.81 in 0.5 mi South 16.1 mph - 0.00 in Rain Light Rain
6:26 PM 53.6 °F - N/A% 29.81 in 1.2 mi SSE 12.7 mph - 0.00 in   Overcast
6:28 PM 53.6 °F - N/A% 29.81 in 2.0 mi SSE 12.7 mph - 0.00 in   Overcast
6:36 PM 53.6 °F - N/A% 29.81 in 5.0 mi SSE 11.5 mph - 0.00 in   Haze
6:56 PM 54.0 °F - N/A% 29.81 in 7.0 mi SSE 12.7 mph - 0.00 in   Overcast
7:18 PM 55.4 °F - N/A% 29.79 in 9.0 mi SSE 13.8 mph - N/A   Overcast
7:22 PM 55.4 °F - N/A% 29.79 in 9.0 mi SSE 13.8 mph - N/A   Overcast
7:56 PM 55.9 °F - N/A% 29.79 in 9.0 mi SSE 16.1 mph - 0.00 in Rain Light Rain
8:19 PM 55.4 °F 55.4 °F 100% 29.80 in 1.8 mi South 12.7 mph - 0.05 in Rain Rain
8:24 PM 55.4 °F 55.4 °F 100% 29.82 in 1.0 mi SW 9.2 mph - 0.12 in Rain Heavy Rain
8:32 PM 55.4 °F - N/A% 29.83 in 1.2 mi South 13.8 mph - 0.14 in Rain Rain
8:40 PM 55.4 °F - N/A% 29.83 in 1.5 mi SSW 15.0 mph - 0.17 in Rain Rain
8:44 PM 53.6 °F - N/A% 29.82 in 1.0 mi SSW 10.4 mph - 0.22 in Rain Heavy Rain
8:56 PM 54.9 °F - N/A% 29.84 in 1.0 mi SSW 11.5 mph 26.5 mph 0.23 in Rain Light Rain
8:58 PM 55.4 °F - N/A% 29.83 in 1.5 mi South 10.4 mph - 0.00 in Rain Light Rain
9:02 PM 55.4 °F - N/A% 29.84 in 3.0 mi South 10.4 mph - 0.00 in Rain Light Rain
9:56 PM 54.9 °F - N/A% 29.87 in 5.0 mi Variable 6.9 mph - 0.00 in   Haze
10:56 PM 54.9 °F - N/A% 29.89 in 1.8 mi South 8.1 mph - N/A   Overcast
11:05 PM 55.4 °F - N/A% 29.89 in 1.0 mi Variable 6.9 mph - N/A   Overcast
11:12 PM 55.4 °F - N/A% 29.90 in 0.5 mi SSE 6.9 mph - N/A Fog Fog
11:25 PM 53.6 °F - N/A% 29.90 in 0.2 mi SSE 5.8 mph - N/A Fog Fog
11:39 PM 53.6 °F - N/A% 29.90 in 0.8 mi Variable 6.9 mph - N/A   Overcast
11:42 PM 53.6 °F - N/A% 29.90 in 1.2 mi South 8.1 mph - N/A   Overcast
11:45 PM 53.6 °F - N/A% 29.90 in 2.0 mi South 8.1 mph - N/A   Overcast
11:56 PM 54.0 °F - N/A% 29.91 in 0.5 mi SSE 6.9 mph - N/A Fog Fog